Time,TemperatureF,DewpointF,PressureIn,WindDirection,WindDirectionDegrees,WindSpeedMPH,WindSpeedGustMPH,Humidity,HourlyPrecipIn,Conditions,Clouds,dailyrainin,SoftwareType,DateUTC
2013-10-28 00:00:00,30.6,0.0,29.98,NW,315,0.0,0.9,0,0.00,,,0.00,WUHU216HW,2013-10-28 04:00:00,
2013-10-28 00:01:00,30.6,0.0,29.99,NW,315,0.0,0.9,0,0.00,,,0.00,WUHU216HW,2013-10-28 04:01:00,
2013-10-28 00:06:00,30.4,0.0,29.98,NW,315,0.0,0.4,0,0.00,,,0.00,WUHU216HW,2013-10-28 04:06:00,
2013-10-28 00:11:00,30.1,0.0,29.99,WNW,293,0.2,0.4,0,0.00,,,0.00,WUHU216HW,2013-10-28 04:11:00,
2013-10-28 00:16:00,29.9,0.0,29.99,West,270,0.2,0.2,0,0.00,,,0.00,WUHU216HW,2013-10-28 04:16:00,
2013-10-28 00:21:00,29.7,0.0,29.99,WSW,248,0.4,0.4,0,0.00,,,0.00,WUHU216HW,2013-10-28 04:21:00,
2013-10-28 00:26:00,29.5,0.0,29.99,SW,225,0.2,0.4,0,0.00,,,0.00,WUHU216HW,2013-10-28 04:26:00,
2013-10-28 00:31:00,29.5,0.0,29.99,West,270,0.0,0.4,0,0.00,,,0.00,WUHU216HW,2013-10-28 04:31:00,
2013-10-28 00:36:00,29.5,0.0,29.99,SW,225,0.9,0.9,0,0.00,,,0.00,WUHU216HW,2013-10-28 04:36:00,
2013-10-28 00:41:00,29.5,0.0,30.00,SW,225,0.7,0.9,0,0.00,,,0.00,WUHU216HW,2013-10-28 04:41:00,
2013-10-28 00:46:00,29.3,0.0,30.00,WSW,248,0.4,0.9,0,0.00,,,0.00,WUHU216HW,2013-10-28 04:46:00,
2013-10-28 00:51:00,29.2,0.0,30.00,SW,225,0.7,1.1,0,0.00,,,0.00,WUHU216HW,2013-10-28 04:51:00,
2013-10-28 00:56:00,29.0,0.0,30.00,WSW,248,0.4,1.6,0,0.00,,,0.00,WUHU216HW,2013-10-28 04:56:00,
2013-10-28 01:01:00,28.8,0.0,30.00,SW,225,1.1,1.6,0,0.00,,,0.00,WUHU216HW,2013-10-28 05:01:00,
2013-10-28 01:06:00,28.6,0.0,30.00,WSW,248,1.1,1.6,0,0.00,,,0.00,WUHU216HW,2013-10-28 05:06:00,
2013-10-28 01:11:00,28.6,0.0,30.00,West,270,0.7,1.1,0,0.00,,,0.00,WUHU216HW,2013-10-28 05:11:00,
2013-10-28 01:16:00,28.6,0.0,30.00,SW,225,1.8,1.8,0,0.00,,,0.00,WUHU216HW,2013-10-28 05:16:00,
2013-10-28 01:21:00,28.6,0.0,30.00,West,270,0.0,1.8,0,0.00,,,0.00,WUHU216HW,2013-10-28 05:21:00,
2013-10-28 01:26:00,28.8,0.0,30.00,West,270,0.9,1.8,0,0.00,,,0.00,WUHU216HW,2013-10-28 05:26:00,
2013-10-28 01:31:00,28.8,0.0,30.01,SW,225,0.2,1.1,0,0.00,,,0.00,WUHU216HW,2013-10-28 05:31:00,
2013-10-28 01:36:00,28.8,0.0,30.01,WSW,248,0.2,1.8,0,0.00,,,0.00,WUHU216HW,2013-10-28 05:36:00,
2013-10-28 01:41:00,29.0,0.0,30.01,North,0,0.0,1.8,0,0.00,,,0.00,WUHU216HW,2013-10-28 05:41:00,
2013-10-28 01:46:00,29.0,0.0,30.01,WNW,293,0.4,0.4,0,0.00,,,0.00,WUHU216HW,2013-10-28 05:46:00,
2013-10-28 01:51:00,29.2,0.0,30.01,West,270,0.0,0.9,0,0.00,,,0.00,WUHU216HW,2013-10-28 05:51:00,
2013-10-28 01:56:00,29.2,0.0,30.01,SSW,203,0.0,0.9,0,0.00,,,0.00,WUHU216HW,2013-10-28 05:56:00,
2013-10-28 02:01:00,29.2,0.0,30.01,SW,225,0.0,1.6,0,0.00,,,0.00,WUHU216HW,2013-10-28 06:01:00,
2013-10-28 02:06:00,29.2,0.0,30.01,WSW,248,0.0,1.6,0,0.00,,,0.00,WUHU216HW,2013-10-28 06:06:00,
2013-10-28 02:11:00,29.3,0.0,30.00,NNW,338,0.4,0.4,0,0.00,,,0.00,WUHU216HW,2013-10-28 06:11:00,
2013-10-28 02:16:00,29.3,0.0,30.00,NNW,338,0.0,0.4,0,0.00,,,0.00,WUHU216HW,2013-10-28 06:16:00,
2013-10-28 02:21:00,29.3,0.0,30.00,NNW,338,0.0,0.4,0,0.00,,,0.00,WUHU216HW,2013-10-28 06:21:00,
2013-10-28 02:26:00,29.2,0.0,30.00,WNW,293,0.0,0.0,0,0.00,,,0.00,WUHU216HW,2013-10-28 06:26:00,
2013-10-28 02:31:00,29.0,0.0,30.00,WNW,293,0.0,0.4,0,0.00,,,0.00,WUHU216HW,2013-10-28 06:31:00,
2013-10-28 02:35:00,28.8,0.0,30.01,SW,225,0.4,0.4,0,0.00,,,0.00,WUHU216HW,2013-10-28 06:35:00,
2013-10-28 02:40:00,28.4,0.0,30.01,West,270,0.2,0.4,0,0.00,,,0.00,WUHU216HW,2013-10-28 06:40:00,
2013-10-28 02:45:00,28.4,0.0,30.01,SW,225,0.4,0.4,0,0.00,,,0.00,WUHU216HW,2013-10-28 06:45:00,
2013-10-28 02:50:00,28.3,0.0,30.00,SSE,158,0.0,0.7,0,0.00,,,0.00,WUHU216HW,2013-10-28 06:50:00,
2013-10-28 02:55:00,28.3,0.0,30.00,SSE,158,0.0,0.7,0,0.00,,,0.00,WUHU216HW,2013-10-28 06:55:00,
2013-10-28 03:00:00,28.1,0.0,30.00,WNW,293,0.0,0.4,0,0.00,,,0.00,WUHU216HW,2013-10-28 07:00:00,
2013-10-28 03:05:00,28.1,0.0,30.00,ENE,68,0.4,0.9,0,0.00,,,0.00,WUHU216HW,2013-10-28 07:05:00,
2013-10-28 03:10:00,28.1,0.0,30.00,WSW,248,0.0,0.9,0,0.00,,,0.00,WUHU216HW,2013-10-28 07:10:00,
2013-10-28 03:15:00,27.9,0.0,30.00,WSW,248,0.0,0.4,0,0.00,,,0.00,WUHU216HW,2013-10-28 07:15:00,
2013-10-28 03:20:00,27.7,0.0,30.00,SE,135,0.2,0.7,0,0.00,,,0.00,WUHU216HW,2013-10-28 07:20:00,
2013-10-28 03:25:00,27.7,0.0,30.00,SE,135,0.4,0.7,0,0.00,,,0.00,WUHU216HW,2013-10-28 07:25:00,
2013-10-28 03:30:00,27.5,0.0,30.00,North,0,0.0,0.4,0,0.00,,,0.00,WUHU216HW,2013-10-28 07:30:00,
2013-10-28 03:35:00,27.4,0.0,30.00,North,0,0.0,0.4,0,0.00,,,0.00,WUHU216HW,2013-10-28 07:35:00,
2013-10-28 03:40:00,27.5,0.0,30.00,SE,135,0.4,0.4,0,0.00,,,0.00,WUHU216HW,2013-10-28 07:40:00,
2013-10-28 03:45:00,27.7,0.0,30.00,SW,225,0.0,0.4,0,0.00,,,0.00,WUHU216HW,2013-10-28 07:45:00,
2013-10-28 03:50:00,27.7,0.0,30.00,SW,225,0.0,0.4,0,0.00,,,0.00,WUHU216HW,2013-10-28 07:50:00,
2013-10-28 03:55:00,27.5,0.0,30.00,SW,225,0.0,0.0,0,0.00,,,0.00,WUHU216HW,2013-10-28 07:55:00,
2013-10-28 04:00:00,27.4,0.0,30.01,SW,225,0.0,0.0,0,0.00,,,0.00,WUHU216HW,2013-10-28 08:00:00,
2013-10-28 04:05:00,27.2,0.0,30.00,SW,225,0.0,0.0,0,0.00,,,0.00,WUHU216HW,2013-10-28 08:05:00,
2013-10-28 04:10:00,27.2,0.0,30.01,SW,225,0.4,0.4,0,0.00,,,0.00,WUHU216HW,2013-10-28 08:10:00,
2013-10-28 04:15:00,27.2,0.0,30.01,SW,225,0.0,0.4,0,0.00,,,0.00,WUHU216HW,2013-10-28 08:15:00,
2013-10-28 04:20:00,27.0,0.0,30.01,SSW,203,0.2,0.2,0,0.00,,,0.00,WUHU216HW,2013-10-28 08:20:00,
2013-10-28 04:25:00,27.0,0.0,30.01,SSW,203,0.0,0.2,0,0.00,,,0.00,WUHU216HW,2013-10-28 08:25:00,
2013-10-28 04:30:00,27.0,0.0,30.01,SSW,203,0.0,0.0,0,0.00,,,0.00,WUHU216HW,2013-10-28 08:30:00,
2013-10-28 04:35:00,27.0,0.0,30.01,SSW,203,0.0,0.0,0,0.00,,,0.00,WUHU216HW,2013-10-28 08:35:00,
2013-10-28 04:40:00,27.0,0.0,30.02,NW,315,0.2,0.4,0,0.00,,,0.00,WUHU216HW,2013-10-28 08:40:00,
2013-10-28 04:45:00,27.2,0.0,30.02,NW,315,0.0,0.4,0,0.00,,,0.00,WUHU216HW,2013-10-28 08:45:00,
2013-10-28 04:50:00,27.2,0.0,30.02,NW,315,0.0,0.2,0,0.00,,,0.00,WUHU216HW,2013-10-28 08:50:00,
2013-10-28 04:55:00,27.2,0.0,30.02,NW,315,0.0,0.0,0,0.00,,,0.00,WUHU216HW,2013-10-28 08:55:00,
2013-10-28 05:00:00,27.2,0.0,30.02,WSW,248,0.0,0.2,0,0.00,,,0.00,WUHU216HW,2013-10-28 09:00:00,
2013-10-28 05:05:00,27.2,0.0,30.02,West,270,0.4,0.4,0,0.00,,,0.00,WUHU216HW,2013-10-28 09:05:00,
2013-10-28 05:10:00,27.2,0.0,30.02,WNW,293,0.4,0.7,0,0.00,,,0.00,WUHU216HW,2013-10-28 09:10:00,
2013-10-28 05:15:00,27.4,0.0,30.02,WNW,293,0.2,0.9,0,0.00,,,0.00,WUHU216HW,2013-10-28 09:15:00,
2013-10-28 05:20:00,27.5,0.0,30.02,WNW,293,0.0,0.9,0,0.00,,,0.00,WUHU216HW,2013-10-28 09:20:00,
2013-10-28 05:25:00,27.4,0.0,30.02,SSE,158,0.4,0.7,0,0.00,,,0.00,WUHU216HW,2013-10-28 09:25:00,
2013-10-28 05:30:00,27.2,0.0,30.02,SSE,158,0.0,0.7,0,0.00,,,0.00,WUHU216HW,2013-10-28 09:30:00,
2013-10-28 05:35:00,27.0,0.0,30.02,SE,135,0.2,0.4,0,0.00,,,0.00,WUHU216HW,2013-10-28 09:35:00,
2013-10-28 05:40:00,26.8,0.0,30.02,ESE,113,0.0,0.4,0,0.00,,,0.00,WUHU216HW,2013-10-28 09:40:00,
2013-10-28 05:45:00,27.0,0.0,30.03,NW,315,1.3,1.3,0,0.00,,,0.00,WUHU216HW,2013-10-28 09:45:00,
2013-10-28 05:50:00,27.0,0.0,30.02,NW,315,0.0,1.3,0,0.00,,,0.00,WUHU216HW,2013-10-28 09:50:00,
2013-10-28 05:55:00,27.0,0.0,30.02,North,0,0.0,1.3,0,0.00,,,0.00,WUHU216HW,2013-10-28 09:55:00,
2013-10-28 06:00:00,27.0,0.0,30.02,North,0,0.0,0.0,0,0.00,,,0.00,WUHU216HW,2013-10-28 10:00:00,
2013-10-28 06:05:00,27.0,0.0,30.02,NE,45,0.0,0.4,0,0.00,,,0.00,WUHU216HW,2013-10-28 10:05:00,
2013-10-28 06:10:00,26.8,0.0,30.01,East,90,0.4,0.4,0,0.00,,,0.00,WUHU216HW,2013-10-28 10:10:00,
2013-10-28 06:15:00,26.6,0.0,30.01,East,90,0.4,0.4,0,0.00,,,0.00,WUHU216HW,2013-10-28 10:15:00,
2013-10-28 06:20:00,26.6,0.0,30.01,East,90,0.4,0.4,0,0.00,,,0.00,WUHU216HW,2013-10-28 10:20:00,
2013-10-28 06:25:00,26.5,0.0,30.01,ESE,113,0.0,0.4,0,0.00,,,0.00,WUHU216HW,2013-10-28 10:25:00,
2013-10-28 06:30:00,26.3,0.0,30.01,NW,315,0.7,0.7,0,0.00,,,0.00,WUHU216HW,2013-10-28 10:30:00,
2013-10-28 06:35:00,26.5,0.0,30.02,NW,315,1.1,1.3,0,0.00,,,0.00,WUHU216HW,2013-10-28 10:35:00,
2013-10-28 06:40:00,26.8,0.0,30.02,NW,315,1.8,1.8,0,0.00,,,0.00,WUHU216HW,2013-10-28 10:40:00,
2013-10-28 06:45:00,27.0,0.0,30.03,NW,315,0.4,1.8,0,0.00,,,0.00,WUHU216HW,2013-10-28 10:45:00,
2013-10-28 06:50:00,27.0,0.0,30.02,NW,315,0.0,1.8,0,0.00,,,0.00,WUHU216HW,2013-10-28 10:50:00,
2013-10-28 06:55:00,27.0,0.0,30.03,SSE,158,0.0,0.4,0,0.00,,,0.00,WUHU216HW,2013-10-28 10:55:00,
2013-10-28 07:00:00,26.6,0.0,30.02,North,0,0.0,0.0,0,0.00,,,0.00,WUHU216HW,2013-10-28 11:00:00,
2013-10-28 07:05:00,26.6,0.0,30.02,North,0,0.0,0.0,0,0.00,,,0.00,WUHU216HW,2013-10-28 11:05:00,
2013-10-28 07:10:00,26.6,0.0,30.03,North,0,0.0,0.0,0,0.00,,,0.00,WUHU216HW,2013-10-28 11:10:00,
2013-10-28 07:15:00,26.6,0.0,30.03,North,0,0.0,0.0,0,0.00,,,0.00,WUHU216HW,2013-10-28 11:15:00,
2013-10-28 07:20:00,26.8,0.0,30.03,North,0,0.0,0.0,0,0.00,,,0.00,WUHU216HW,2013-10-28 11:20:00,
2013-10-28 07:25:00,26.6,0.0,30.03,North,0,0.0,0.0,0,0.00,,,0.00,WUHU216HW,2013-10-28 11:25:00,
2013-10-28 07:30:00,26.6,0.0,30.04,North,0,0.0,0.0,0,0.00,,,0.00,WUHU216HW,2013-10-28 11:30:00,
2013-10-28 07:35:00,26.6,0.0,30.04,North,0,0.0,0.0,0,0.00,,,0.00,WUHU216HW,2013-10-28 11:35:00,
2013-10-28 07:40:00,26.8,0.0,30.04,North,0,0.0,0.0,0,0.00,,,0.00,WUHU216HW,2013-10-28 11:40:00,
2013-10-28 07:45:00,27.0,0.0,30.04,North,0,0.0,0.0,0,0.00,,,0.00,WUHU216HW,2013-10-28 11:45:00,
2013-10-28 07:50:00,27.2,0.0,30.04,North,0,0.0,0.0,0,0.00,,,0.00,WUHU216HW,2013-10-28 11:50:00,
2013-10-28 07:55:00,27.7,0.0,30.05,North,0,0.0,0.0,0,0.00,,,0.00,WUHU216HW,2013-10-28 11:55:00,
2013-10-28 08:00:00,27.9,0.0,30.04,North,0,0.0,0.0,0,0.00,,,0.00,WUHU216HW,2013-10-28 12:00:00,
2013-10-28 08:05:00,28.3,0.0,30.04,North,0,0.0,0.0,0,0.00,,,0.00,WUHU216HW,2013-10-28 12:05:00,
2013-10-28 08:10:00,28.8,0.0,30.05,North,0,0.0,0.0,0,0.00,,,0.00,WUHU216HW,2013-10-28 12:10:00,
2013-10-28 08:15:00,29.2,0.0,30.05,SW,225,0.7,0.7,0,0.00,,,0.00,WUHU216HW,2013-10-28 12:15:00,
2013-10-28 08:20:00,29.9,0.0,30.05,SSE,158,1.3,1.3,0,0.00,,,0.00,WUHU216HW,2013-10-28 12:20:00,
2013-10-28 08:25:00,30.2,0.0,30.05,WSW,248,0.2,1.8,0,0.00,,,0.00,WUHU216HW,2013-10-28 12:25:00,
2013-10-28 08:30:00,31.0,0.0,30.05,WNW,293,1.3,3.1,0,0.00,,,0.00,WUHU216HW,2013-10-28 12:30:00,
2013-10-28 08:35:00,32.2,0.0,30.05,West,270,1.8,3.1,0,0.00,,,0.00,WUHU216HW,2013-10-28 12:35:00,
2013-10-28 08:40:00,33.7,0.0,30.05,SE,135,1.8,3.4,0,0.00,,,0.00,WUHU216HW,2013-10-28 12:40:00,
2013-10-28 08:45:00,35.3,0.0,30.05,SW,225,1.3,4.9,0,0.00,,,0.00,WUHU216HW,2013-10-28 12:45:00,
2013-10-28 08:50:00,36.7,0.0,30.05,WSW,248,0.4,4.9,0,0.00,,,0.00,WUHU216HW,2013-10-28 12:50:00,
2013-10-28 08:55:00,37.8,0.0,30.05,SW,225,3.4,4.0,0,0.00,,,0.00,WUHU216HW,2013-10-28 12:55:00,
2013-10-28 09:00:00,38.5,0.0,30.05,WSW,248,2.7,4.3,0,0.00,,,0.00,WUHU216HW,2013-10-28 13:00:00,
2013-10-28 09:05:00,38.9,0.0,30.05,SSE,158,1.1,4.3,0,0.00,,,0.00,WUHU216HW,2013-10-28 13:05:00,
2013-10-28 09:10:00,39.2,0.0,30.05,West,270,5.4,5.4,0,0.00,,,0.00,WUHU216HW,2013-10-28 13:10:00,
2013-10-28 09:15:00,40.0,0.0,30.05,WSW,248,0.9,5.8,0,0.00,,,0.00,WUHU216HW,2013-10-28 13:15:00,
2013-10-28 09:20:00,40.5,0.0,30.05,WSW,248,4.3,5.8,0,0.00,,,0.00,WUHU216HW,2013-10-28 13:20:00,
2013-10-28 09:25:00,41.0,0.0,30.05,South,180,6.9,8.5,0,0.00,,,0.00,WUHU216HW,2013-10-28 13:25:00,
2013-10-28 09:30:00,41.8,0.0,30.05,SSW,203,1.1,8.5,0,0.00,,,0.00,WUHU216HW,2013-10-28 13:30:00,
2013-10-28 09:35:00,42.5,0.0,30.05,WNW,293,1.6,6.9,0,0.00,,,0.00,WUHU216HW,2013-10-28 13:35:00,
2013-10-28 09:40:00,43.2,0.0,30.05,SSW,203,6.3,11.2,0,0.00,,,0.00,WUHU216HW,2013-10-28 13:40:00,
2013-10-28 09:45:00,43.6,0.0,30.05,WSW,248,1.8,11.2,0,0.00,,,0.00,WUHU216HW,2013-10-28 13:45:00,
2013-10-28 09:50:00,44.3,0.0,30.05,South,180,4.3,7.6,0,0.00,,,0.00,WUHU216HW,2013-10-28 13:50:00,
2013-10-28 09:55:00,44.8,0.0,30.05,West,270,4.3,7.8,0,0.00,,,0.00,WUHU216HW,2013-10-28 13:55:00,
2013-10-28 10:00:00,45.4,0.0,30.05,SSW,203,2.0,7.8,0,0.00,,,0.00,WUHU216HW,2013-10-28 14:00:00,
2013-10-28 10:05:00,46.1,0.0,30.05,SSW,203,2.0,6.3,0,0.00,,,0.00,WUHU216HW,2013-10-28 14:05:00,
2013-10-28 10:10:00,47.0,0.0,30.05,West,270,7.2,8.1,0,0.00,,,0.00,WUHU216HW,2013-10-28 14:10:00,
2013-10-28 10:15:00,47.2,0.0,30.04,WSW,248,2.7,8.1,0,0.00,,,0.00,WUHU216HW,2013-10-28 14:15:00,
2013-10-28 10:20:00,47.2,0.0,30.04,WNW,293,2.7,7.2,0,0.00,,,0.00,WUHU216HW,2013-10-28 14:20:00,
2013-10-28 10:25:00,47.9,0.0,30.04,SSW,203,2.7,6.9,0,0.00,,,0.00,WUHU216HW,2013-10-28 14:25:00,
2013-10-28 10:30:00,48.2,0.0,30.04,SW,225,0.9,6.3,0,0.00,,,0.00,WUHU216HW,2013-10-28 14:30:00,
2013-10-28 10:35:00,48.6,0.0,30.04,SW,225,5.4,6.3,0,0.00,,,0.00,WUHU216HW,2013-10-28 14:35:00,
2013-10-28 10:40:00,49.0,0.0,30.04,South,180,4.5,7.6,0,0.00,,,0.00,WUHU216HW,2013-10-28 14:40:00,
2013-10-28 10:45:00,49.3,0.0,30.04,East,90,4.3,7.6,0,0.00,,,0.00,WUHU216HW,2013-10-28 14:45:00,
2013-10-28 10:50:00,49.9,0.0,30.03,WSW,248,1.3,5.4,0,0.00,,,0.00,WUHU216HW,2013-10-28 14:50:00,
2013-10-28 10:55:00,50.8,0.0,30.03,West,270,5.4,5.4,0,0.00,,,0.00,WUHU216HW,2013-10-28 14:55:00,
2013-10-28 11:00:00,51.5,0.0,30.03,WNW,293,4.0,9.4,0,0.00,,,0.00,WUHU216HW,2013-10-28 15:00:00,
2013-10-28 11:05:00,52.2,0.0,30.03,SW,225,4.7,9.4,0,0.00,,,0.00,WUHU216HW,2013-10-28 15:05:00,
2013-10-28 11:10:00,52.6,0.0,30.04,SSE,158,7.6,9.4,0,0.00,,,0.00,WUHU216HW,2013-10-28 15:10:00,
2013-10-28 11:15:00,52.9,0.0,30.03,SSE,158,1.1,8.9,0,0.00,,,0.00,WUHU216HW,2013-10-28 15:15:00,
2013-10-28 11:20:00,53.3,0.0,30.03,SW,225,7.2,9.6,0,0.00,,,0.00,WUHU216HW,2013-10-28 15:20:00,
2013-10-28 11:25:00,54.0,0.0,30.03,SSW,203,10.7,10.7,0,0.00,,,0.00,WUHU216HW,2013-10-28 15:25:00,
2013-10-28 11:30:00,54.4,0.0,30.03,SSW,203,6.3,10.7,0,0.00,,,0.00,WUHU216HW,2013-10-28 15:30:00,
2013-10-28 11:35:00,54.7,0.0,30.03,NE,45,2.0,11.2,0,0.00,,,0.00,WUHU216HW,2013-10-28 15:35:00,
2013-10-28 11:40:00,55.1,0.0,30.03,WSW,248,13.0,13.0,0,0.00,,,0.00,WUHU216HW,2013-10-28 15:40:00,
2013-10-28 11:45:00,55.3,0.0,30.03,West,270,4.0,13.0,0,0.00,,,0.00,WUHU216HW,2013-10-28 15:45:00,
2013-10-28 11:50:00,55.3,0.0,30.03,West,270,4.0,13.0,0,0.00,,,0.00,WUHU216HW,2013-10-28 15:50:00,
2013-10-28 11:55:00,56.0,0.0,30.02,SE,135,2.2,10.5,0,0.00,,,0.00,WUHU216HW,2013-10-28 15:55:00,
2013-10-28 12:00:00,56.2,0.0,30.02,WNW,293,4.3,10.5,0,0.00,,,0.00,WUHU216HW,2013-10-28 16:00:00,
2013-10-28 12:05:00,56.7,0.0,30.02,SSW,203,6.9,12.8,0,0.00,,,0.00,WUHU216HW,2013-10-28 16:05:00,
2013-10-28 12:10:00,56.9,0.0,30.02,SE,135,1.8,12.8,0,0.00,,,0.00,WUHU216HW,2013-10-28 16:10:00,
2013-10-28 12:15:00,57.1,0.0,30.02,WNW,293,2.9,7.2,0,0.00,,,0.00,WUHU216HW,2013-10-28 16:15:00,
2013-10-28 12:20:00,57.1,0.0,30.02,WNW,293,4.0,7.2,0,0.00,,,0.00,WUHU216HW,2013-10-28 16:20:00,
2013-10-28 12:25:00,58.0,0.0,30.02,West,270,8.9,9.6,0,0.00,,,0.00,WUHU216HW,2013-10-28 16:25:00,
2013-10-28 12:30:00,57.4,0.0,30.02,SE,135,6.9,12.1,0,0.00,,,0.00,WUHU216HW,2013-10-28 16:30:00,
2013-10-28 12:35:00,56.5,0.0,30.02,WNW,293,3.4,12.1,0,0.00,,,0.00,WUHU216HW,2013-10-28 16:35:00,
2013-10-28 12:40:00,55.8,0.0,30.02,WSW,248,8.5,8.7,0,0.00,,,0.00,WUHU216HW,2013-10-28 16:40:00,
2013-10-28 12:45:00,55.8,0.0,30.02,WSW,248,11.2,11.2,0,0.00,,,0.00,WUHU216HW,2013-10-28 16:45:00,
2013-10-28 12:50:00,55.6,0.0,30.02,WNW,293,6.9,11.2,0,0.00,,,0.00,WUHU216HW,2013-10-28 16:50:00,
2013-10-28 12:55:00,55.3,0.0,30.02,East,90,0.4,8.3,0,0.00,,,0.00,WUHU216HW,2013-10-28 16:55:00,
2013-10-28 13:00:00,55.1,0.0,30.02,SW,225,4.9,6.9,0,0.00,,,0.00,WUHU216HW,2013-10-28 17:00:00,
2013-10-28 13:05:00,55.6,0.0,30.02,South,180,6.3,9.8,0,0.00,,,0.00,WUHU216HW,2013-10-28 17:05:00,
2013-10-28 13:10:00,56.0,0.0,30.02,SW,225,2.2,9.8,0,0.00,,,0.00,WUHU216HW,2013-10-28 17:10:00,
2013-10-28 13:15:00,56.3,0.0,30.02,WSW,248,11.0,11.0,0,0.00,,,0.00,WUHU216HW,2013-10-28 17:15:00,
2013-10-28 13:20:00,56.2,0.0,30.01,NW,315,10.5,12.8,0,0.00,,,0.00,WUHU216HW,2013-10-28 17:20:00,
2013-10-28 13:25:00,56.0,0.0,30.01,NNW,338,5.1,15.4,0,0.00,,,0.00,WUHU216HW,2013-10-28 17:25:00,
2013-10-28 13:30:00,56.0,0.0,30.01,NW,315,3.4,15.4,0,0.00,,,0.00,WUHU216HW,2013-10-28 17:30:00,
2013-10-28 13:35:00,56.2,0.0,30.01,SW,225,2.7,11.9,0,0.00,,,0.00,WUHU216HW,2013-10-28 17:35:00,
2013-10-28 13:40:00,57.2,0.0,30.02,West,270,3.4,10.5,0,0.00,,,0.00,WUHU216HW,2013-10-28 17:40:00,
2013-10-28 13:45:00,58.0,0.0,30.02,West,270,6.9,10.5,0,0.00,,,0.00,WUHU216HW,2013-10-28 17:45:00,
2013-10-28 13:50:00,58.1,0.0,30.02,West,270,4.3,6.9,0,0.00,,,0.00,WUHU216HW,2013-10-28 17:50:00,
2013-10-28 13:55:00,58.0,0.0,30.02,West,270,4.0,6.9,0,0.00,,,0.00,WUHU216HW,2013-10-28 17:55:00,
2013-10-28 14:00:00,57.2,0.0,30.02,WNW,293,5.1,9.2,0,0.00,,,0.00,WUHU216HW,2013-10-28 18:00:00,
2013-10-28 14:05:00,57.1,0.0,30.02,WNW,293,15.7,15.7,0,0.00,,,0.00,WUHU216HW,2013-10-28 18:05:00,
2013-10-28 14:10:00,56.5,0.0,30.02,SSW,203,3.4,15.7,0,0.00,,,0.00,WUHU216HW,2013-10-28 18:10:00,
2013-10-28 14:15:00,56.2,0.0,30.02,West,270,11.9,15.7,0,0.00,,,0.00,WUHU216HW,2013-10-28 18:15:00,
2013-10-28 14:20:00,56.3,0.0,30.03,WSW,248,9.2,14.8,0,0.00,,,0.00,WUHU216HW,2013-10-28 18:20:00,
2013-10-28 14:25:00,56.3,0.0,30.03,SSW,203,2.2,14.8,0,0.00,,,0.00,WUHU216HW,2013-10-28 18:25:00,
2013-10-28 14:30:00,56.2,0.0,30.03,WNW,293,4.5,9.2,0,0.00,,,0.00,WUHU216HW,2013-10-28 18:30:00,
2013-10-28 14:35:00,56.2,0.0,30.03,WSW,248,4.5,6.9,0,0.00,,,0.00,WUHU216HW,2013-10-28 18:35:00,
2013-10-28 14:40:00,56.0,0.0,30.03,WSW,248,4.0,7.6,0,0.00,,,0.00,WUHU216HW,2013-10-28 18:40:00,
2013-10-28 14:45:00,55.8,0.0,30.03,WNW,293,1.8,7.6,0,0.00,,,0.00,WUHU216HW,2013-10-28 18:45:00,
2013-10-28 14:50:00,56.0,0.0,30.03,West,270,3.6,7.6,0,0.00,,,0.00,WUHU216HW,2013-10-28 18:50:00,
2013-10-28 14:55:00,56.0,0.0,30.03,West,270,6.0,9.2,0,0.00,,,0.00,WUHU216HW,2013-10-28 18:55:00,
2013-10-28 15:00:00,56.2,0.0,30.03,NW,315,2.7,9.2,0,0.00,,,0.00,WUHU216HW,2013-10-28 19:00:00,
2013-10-28 15:05:00,56.2,0.0,30.04,WNW,293,3.4,7.6,0,0.00,,,0.00,WUHU216HW,2013-10-28 19:05:00,
2013-10-28 15:10:00,56.0,0.0,30.04,WSW,248,9.4,11.4,0,0.00,,,0.00,WUHU216HW,2013-10-28 19:10:00,
2013-10-28 15:15:00,55.8,0.0,30.04,NNW,338,4.7,14.1,0,0.00,,,0.00,WUHU216HW,2013-10-28 19:15:00,
2013-10-28 15:20:00,55.8,0.0,30.05,WNW,293,13.0,14.1,0,0.00,,,0.00,WUHU216HW,2013-10-28 19:20:00,
2013-10-28 15:25:00,55.6,0.0,30.05,NNW,338,8.5,18.6,0,0.00,,,0.00,WUHU216HW,2013-10-28 19:25:00,
2013-10-28 15:30:00,55.6,0.0,30.05,WNW,293,4.0,18.6,0,0.00,,,0.00,WUHU216HW,2013-10-28 19:30:00,
2013-10-28 15:35:00,56.0,0.0,30.06,NNW,338,8.9,12.5,0,0.00,,,0.00,WUHU216HW,2013-10-28 19:35:00,
2013-10-28 15:40:00,56.2,0.0,30.07,NNW,338,8.5,12.5,0,0.00,,,0.00,WUHU216HW,2013-10-28 19:40:00,
2013-10-28 15:45:00,55.4,0.0,30.07,North,0,9.4,10.5,0,0.00,,,0.00,WUHU216HW,2013-10-28 19:45:00,
2013-10-28 15:50:00,54.4,0.0,30.07,North,0,9.2,17.2,0,0.00,,,0.00,WUHU216HW,2013-10-28 19:50:00,
2013-10-28 15:55:00,54.2,0.0,30.08,WNW,293,6.9,17.2,0,0.00,,,0.00,WUHU216HW,2013-10-28 19:55:00,
2013-10-28 16:00:00,53.6,0.0,30.08,NNW,338,6.0,11.9,0,0.00,,,0.00,WUHU216HW,2013-10-28 20:00:00,
2013-10-28 16:05:00,53.5,0.0,30.08,WNW,293,5.8,15.9,0,0.00,,,0.00,WUHU216HW,2013-10-28 20:05:00,
2013-10-28 16:10:00,53.3,0.0,30.08,WNW,293,6.5,15.9,0,0.00,,,0.00,WUHU216HW,2013-10-28 20:10:00,
2013-10-28 16:15:00,53.3,0.0,30.08,WSW,248,3.1,11.4,0,0.00,,,0.00,WUHU216HW,2013-10-28 20:15:00,
2013-10-28 16:20:00,53.3,0.0,30.09,WNW,293,5.1,11.4,0,0.00,,,0.00,WUHU216HW,2013-10-28 20:20:00,
2013-10-28 16:25:00,52.9,0.0,30.10,NW,315,9.2,10.3,0,0.00,,,0.00,WUHU216HW,2013-10-28 20:25:00,
2013-10-28 16:30:00,52.6,0.0,30.10,WNW,293,6.3,10.5,0,0.00,,,0.00,WUHU216HW,2013-10-28 20:30:00,
2013-10-28 16:35:00,51.7,0.0,30.11,NW,315,9.2,13.4,0,0.00,,,0.00,WUHU216HW,2013-10-28 20:35:00,
2013-10-28 16:40:00,51.1,0.0,30.11,NNW,338,11.9,13.4,0,0.00,,,0.00,WUHU216HW,2013-10-28 20:40:00,
2013-10-28 16:45:00,50.4,0.0,30.12,NW,315,9.4,16.6,0,0.00,,,0.00,WUHU216HW,2013-10-28 20:45:00,
2013-10-28 16:50:00,50.0,0.0,30.12,NNW,338,16.6,16.6,0,0.00,,,0.00,WUHU216HW,2013-10-28 20:50:00,
2013-10-28 16:55:00,49.5,0.0,30.13,NW,315,4.5,16.6,0,0.00,,,0.00,WUHU216HW,2013-10-28 20:55:00,
2013-10-28 17:00:00,49.1,0.0,30.13,NNW,338,9.6,16.6,0,0.00,,,0.00,WUHU216HW,2013-10-28 21:00:00,
2013-10-28 17:05:00,49.0,0.0,30.13,WNW,293,4.0,12.1,0,0.00,,,0.00,WUHU216HW,2013-10-28 21:05:00,
2013-10-28 17:10:00,48.6,0.0,30.13,West,270,2.5,8.7,0,0.00,,,0.00,WUHU216HW,2013-10-28 21:10:00,
2013-10-28 17:15:00,48.4,0.0,30.14,NNW,338,1.6,5.4,0,0.00,,,0.00,WUHU216HW,2013-10-28 21:15:00,
2013-10-28 17:20:00,48.2,0.0,30.14,NNW,338,3.8,7.2,0,0.00,,,0.00,WUHU216HW,2013-10-28 21:20:00,
2013-10-28 17:25:00,47.9,0.0,30.15,West,270,2.5,7.2,0,0.00,,,0.00,WUHU216HW,2013-10-28 21:25:00,
2013-10-28 17:30:00,47.7,0.0,30.15,NW,315,2.5,7.6,0,0.00,,,0.00,WUHU216HW,2013-10-28 21:30:00,
2013-10-28 17:35:00,47.3,0.0,30.15,NNW,338,3.4,7.6,0,0.00,,,0.00,WUHU216HW,2013-10-28 21:35:00,
2013-10-28 17:40:00,47.3,0.0,30.15,WSW,248,4.9,6.9,0,0.00,,,0.00,WUHU216HW,2013-10-28 21:40:00,
2013-10-28 17:45:00,46.8,0.0,30.16,NW,315,2.2,4.9,0,0.00,,,0.00,WUHU216HW,2013-10-28 21:45:00,
2013-10-28 17:50:00,46.6,0.0,30.16,WNW,293,2.2,4.9,0,0.00,,,0.00,WUHU216HW,2013-10-28 21:50:00,
2013-10-28 17:55:00,46.3,0.0,30.16,WNW,293,3.6,5.4,0,0.00,,,0.00,WUHU216HW,2013-10-28 21:55:00,
2013-10-28 18:00:00,46.3,0.0,30.16,WSW,248,2.5,5.4,0,0.00,,,0.00,WUHU216HW,2013-10-28 22:00:00,
2013-10-28 18:05:00,45.7,0.0,30.17,WNW,293,3.1,4.7,0,0.00,,,0.00,WUHU216HW,2013-10-28 22:05:00,
2013-10-28 18:10:00,45.4,0.0,30.17,West,270,1.8,4.7,0,0.00,,,0.00,WUHU216HW,2013-10-28 22:10:00,
2013-10-28 18:15:00,45.0,0.0,30.17,SSW,203,1.6,3.6,0,0.00,,,0.00,WUHU216HW,2013-10-28 22:15:00,
2013-10-28 18:20:00,44.6,0.0,30.18,North,0,1.8,3.6,0,0.00,,,0.00,WUHU216HW,2013-10-28 22:20:00,
2013-10-28 18:25:00,44.3,0.0,30.18,WNW,293,3.6,4.0,0,0.00,,,0.00,WUHU216HW,2013-10-28 22:25:00,
2013-10-28 18:30:00,44.1,0.0,30.18,NW,315,1.8,4.0,0,0.00,,,0.00,WUHU216HW,2013-10-28 22:30:00,
2013-10-28 18:35:00,43.7,0.0,30.19,WNW,293,1.8,2.7,0,0.00,,,0.00,WUHU216HW,2013-10-28 22:35:00,
2013-10-28 18:40:00,43.6,0.0,30.19,NW,315,1.1,2.5,0,0.00,,,0.00,WUHU216HW,2013-10-28 22:40:00,
2013-10-28 18:45:00,43.2,0.0,30.20,NNE,23,0.7,2.2,0,0.00,,,0.00,WUHU216HW,2013-10-28 22:45:00,
2013-10-28 18:50:00,42.8,0.0,30.21,North,0,1.6,6.3,0,0.00,,,0.00,WUHU216HW,2013-10-28 22:50:00,
2013-10-28 18:55:00,42.8,0.0,30.21,WNW,293,2.7,6.3,0,0.00,,,0.00,WUHU216HW,2013-10-28 22:55:00,
2013-10-28 19:00:00,42.8,0.0,30.21,WNW,293,4.0,4.5,0,0.00,,,0.00,WUHU216HW,2013-10-28 23:00:00,
2013-10-28 19:05:00,43.0,0.0,30.21,WNW,293,10.1,10.1,0,0.00,,,0.00,WUHU216HW,2013-10-28 23:05:00,
2013-10-28 19:10:00,43.2,0.0,30.22,NW,315,6.0,10.1,0,0.00,,,0.00,WUHU216HW,2013-10-28 23:10:00,
2013-10-28 19:15:00,43.2,0.0,30.22,WNW,293,2.2,6.0,0,0.00,,,0.00,WUHU216HW,2013-10-28 23:15:00,
2013-10-28 19:20:00,43.2,0.0,30.22,West,270,4.7,6.0,0,0.00,,,0.00,WUHU216HW,2013-10-28 23:20:00,
2013-10-28 19:25:00,42.8,0.0,30.22,NW,315,5.6,6.3,0,0.00,,,0.00,WUHU216HW,2013-10-28 23:25:00,
2013-10-28 19:30:00,42.8,0.0,30.22,NW,315,4.0,6.3,0,0.00,,,0.00,WUHU216HW,2013-10-28 23:30:00,
2013-10-28 19:35:00,42.7,0.0,30.23,WNW,293,5.6,5.6,0,0.00,,,0.00,WUHU216HW,2013-10-28 23:35:00,
2013-10-28 19:40:00,42.5,0.0,30.23,WNW,293,3.8,5.6,0,0.00,,,0.00,WUHU216HW,2013-10-28 23:40:00,
2013-10-28 19:45:00,42.5,0.0,30.23,NW,315,3.4,9.4,0,0.00,,,0.00,WUHU216HW,2013-10-28 23:45:00,
2013-10-28 19:50:00,42.5,0.0,30.23,West,270,4.7,9.4,0,0.00,,,0.00,WUHU216HW,2013-10-28 23:50:00,
2013-10-28 19:55:00,42.3,0.0,30.23,NW,315,6.0,6.0,0,0.00,,,0.00,WUHU216HW,2013-10-28 23:55:00,
2013-10-28 20:00:00,42.1,0.0,30.23,WNW,293,2.5,6.0,0,0.00,,,0.00,WUHU216HW,2013-10-29 00:00:00,
2013-10-28 20:05:00,41.8,0.0,30.24,WNW,293,3.4,6.9,0,0.00,,,0.00,WUHU216HW,2013-10-29 00:05:00,
2013-10-28 20:10:00,41.8,0.0,30.24,West,270,2.5,6.9,0,0.00,,,0.00,WUHU216HW,2013-10-29 00:10:00,
2013-10-28 20:15:00,41.6,0.0,30.24,NW,315,1.3,4.0,0,0.00,,,0.00,WUHU216HW,2013-10-29 00:15:00,
2013-10-28 20:20:00,41.4,0.0,30.24,West,270,1.8,3.4,0,0.00,,,0.00,WUHU216HW,2013-10-29 00:20:00,
2013-10-28 20:25:00,41.0,0.0,30.25,WSW,248,0.0,3.4,0,0.00,,,0.00,WUHU216HW,2013-10-29 00:25:00,
2013-10-28 20:30:00,40.7,0.0,30.25,WSW,248,1.1,2.7,0,0.00,,,0.00,WUHU216HW,2013-10-29 00:30:00,
2013-10-28 20:35:00,40.1,0.0,30.25,NW,315,1.3,1.8,0,0.00,,,0.00,WUHU216HW,2013-10-29 00:35:00,
2013-10-28 20:40:00,40.0,0.0,30.25,NW,315,1.8,3.8,0,0.00,,,0.00,WUHU216HW,2013-10-29 00:40:00,
2013-10-28 20:45:00,39.6,0.0,30.25,WSW,248,1.3,3.8,0,0.00,,,0.00,WUHU216HW,2013-10-29 00:45:00,
2013-10-28 20:50:00,39.2,0.0,30.25,WSW,248,0.4,3.4,0,0.00,,,0.00,WUHU216HW,2013-10-29 00:50:00,
2013-10-28 20:55:00,38.9,0.0,30.26,NW,315,0.4,2.2,0,0.00,,,0.00,WUHU216HW,2013-10-29 00:55:00,
2013-10-28 21:00:00,38.5,0.0,30.25,WNW,293,3.8,3.8,0,0.00,,,0.00,WUHU216HW,2013-10-29 01:00:00,
2013-10-28 21:05:00,38.3,0.0,30.25,North,0,2.9,3.8,0,0.00,,,0.00,WUHU216HW,2013-10-29 01:05:00,
2013-10-28 21:10:00,38.2,0.0,30.26,WNW,293,0.9,3.8,0,0.00,,,0.00,WUHU216HW,2013-10-29 01:10:00,
2013-10-28 21:15:00,38.0,0.0,30.26,WSW,248,1.8,3.1,0,0.00,,,0.00,WUHU216HW,2013-10-29 01:15:00,
2013-10-28 21:20:00,37.8,0.0,30.26,NNW,338,1.6,2.5,0,0.00,,,0.00,WUHU216HW,2013-10-29 01:20:00,
2013-10-28 21:25:00,37.4,0.0,30.26,NW,315,0.7,3.4,0,0.00,,,0.00,WUHU216HW,2013-10-29 01:25:00,
2013-10-28 21:30:00,37.3,0.0,30.26,WNW,293,1.3,3.4,0,0.00,,,0.00,WUHU216HW,2013-10-29 01:30:00,
2013-10-28 21:35:00,37.1,0.0,30.27,NW,315,3.6,4.0,0,0.00,,,0.00,WUHU216HW,2013-10-29 01:35:00,
2013-10-28 21:40:00,36.9,0.0,30.27,West,270,1.1,4.7,0,0.00,,,0.00,WUHU216HW,2013-10-29 01:40:00,
2013-10-28 21:45:00,36.5,0.0,30.27,WSW,248,0.7,4.7,0,0.00,,,0.00,WUHU216HW,2013-10-29 01:45:00,
2013-10-28 21:50:00,36.2,0.0,30.28,WNW,293,1.1,2.5,0,0.00,,,0.00,WUHU216HW,2013-10-29 01:50:00,
2013-10-28 21:54:00,35.8,0.0,30.27,West,270,1.8,3.1,0,0.00,,,0.00,WUHU216HW,2013-10-29 01:54:00,
2013-10-28 21:59:00,35.6,0.0,30.27,NW,315,1.1,3.1,0,0.00,,,0.00,WUHU216HW,2013-10-29 01:59:00,
2013-10-28 22:04:00,35.5,0.0,30.27,SW,225,0.0,1.8,0,0.00,,,0.00,WUHU216HW,2013-10-29 02:04:00,
2013-10-28 22:09:00,34.9,0.0,30.28,WSW,248,1.1,1.6,0,0.00,,,0.00,WUHU216HW,2013-10-29 02:09:00,
2013-10-28 22:14:00,34.7,0.0,30.28,NW,315,1.1,1.6,0,0.00,,,0.00,WUHU216HW,2013-10-29 02:14:00,
2013-10-28 22:19:00,34.4,0.0,30.28,West,270,1.8,1.8,0,0.00,,,0.00,WUHU216HW,2013-10-29 02:19:00,
2013-10-28 22:24:00,34.0,0.0,30.28,NW,315,0.2,1.8,0,0.00,,,0.00,WUHU216HW,2013-10-29 02:24:00,
2013-10-28 22:29:00,33.5,0.0,30.28,WNW,293,1.1,2.0,0,0.00,,,0.00,WUHU216HW,2013-10-29 02:29:00,
2013-10-28 22:34:00,33.1,0.0,30.29,WSW,248,0.4,2.0,0,0.00,,,0.00,WUHU216HW,2013-10-29 02:34:00,
2013-10-28 22:39:00,32.8,0.0,30.29,West,270,0.4,1.1,0,0.00,,,0.00,WUHU216HW,2013-10-29 02:39:00,
2013-10-28 22:44:00,32.4,0.0,30.29,West,270,0.4,0.9,0,0.00,,,0.00,WUHU216HW,2013-10-29 02:44:00,
2013-10-28 22:49:00,32.0,0.0,30.29,West,270,0.0,0.9,0,0.00,,,0.00,WUHU216HW,2013-10-29 02:49:00,
2013-10-28 22:54:00,31.5,0.0,30.29,SW,225,1.3,1.3,0,0.00,,,0.00,WUHU216HW,2013-10-29 02:54:00,
2013-10-28 22:59:00,31.1,0.0,30.29,WSW,248,0.4,1.3,0,0.00,,,0.00,WUHU216HW,2013-10-29 02:59:00,
2013-10-28 23:04:00,31.0,0.0,30.29,SW,225,0.0,1.3,0,0.00,,,0.00,WUHU216HW,2013-10-29 03:04:00,
2013-10-28 23:09:00,30.8,0.0,30.29,WSW,248,1.3,1.3,0,0.00,,,0.00,WUHU216HW,2013-10-29 03:09:00,
2013-10-28 23:14:00,30.6,0.0,30.29,SW,225,0.0,1.6,0,0.00,,,0.00,WUHU216HW,2013-10-29 03:14:00,
2013-10-28 23:19:00,30.6,0.0,30.29,NNW,338,0.4,1.6,0,0.00,,,0.00,WUHU216HW,2013-10-29 03:19:00,
2013-10-28 23:24:00,30.4,0.0,30.29,WNW,293,1.1,1.1,0,0.00,,,0.00,WUHU216HW,2013-10-29 03:24:00,
2013-10-28 23:29:00,30.2,0.0,30.29,West,270,0.0,1.1,0,0.00,,,0.00,WUHU216HW,2013-10-29 03:29:00,
2013-10-28 23:34:00,30.1,0.0,30.29,West,270,0.7,1.1,0,0.00,,,0.00,WUHU216HW,2013-10-29 03:34:00,
2013-10-28 23:39:00,29.9,0.0,30.29,West,270,0.4,1.1,0,0.00,,,0.00,WUHU216HW,2013-10-29 03:39:00,
2013-10-28 23:44:00,29.7,0.0,30.29,West,270,0.0,1.1,0,0.00,,,0.00,WUHU216HW,2013-10-29 03:44:00,
2013-10-28 23:49:00,29.5,0.0,30.29,West,270,0.4,0.7,0,0.00,,,0.00,WUHU216HW,2013-10-29 03:49:00,
2013-10-28 23:54:00,29.3,0.0,30.29,West,270,0.4,0.9,0,0.00,,,0.00,WUHU216HW,2013-10-29 03:54:00,
2013-10-28 23:59:00,29.5,0.0,30.29,West,270,0.0,0.9,0,0.00,,,0.00,WUHU216HW,2013-10-29 03:59:00,